Date String (YYYY-MM-DD hh:mm:ss) UTC,Instrument flags,absolute air pressure of the measurement (hPa),sample flow rate (lpm),inlet stack bypass flow (lpm),air temperature of the measurement (°C),ambient temperature measured by the external sensor (°C),aerosol sample conditioner tube jacket temperature (°C),OPC LED temperature (°C),internal box temperature (°C),relative humidity of the measurement (%),span deviation,mass concentration of particles derived from Lorenz-Mie calculation of OPC scattering (μg/m³),mass concentration of particles derived from Lorenz-Mie calculation of OPC scattering (μg/m³),mass concentration of particles derived from Lorenz-Mie calculation of OPC scattering (μg/m³)
DateTimeUTC,F1_M11,P_M11,Q1_M11,Q2_M11,T1_M11,T2_M11,T3_M11,T4_M11,T5_M11,U1_M11,ZSPAN_M11,X0_M11,X2_M11,X1_M11
2023-10-12 17:00:00,SystemResetWarning,0813.8,5.00,000.00,029.2,027.9,000.0,037.6,030.8,19.8,0000.0,0006.60,0002.04,0001.66
2023-10-12 17:01:00,SystemResetWarning,0813.8,5.00,000.00,029.2,027.9,000.0,037.6,030.9,20.0,0000.0,0006.37,0001.94,0001.63
2023-10-12 17:02:00,SystemResetWarning,0813.8,5.00,000.00,029.2,027.9,000.0,037.6,030.9,20.0,0000.0,0006.28,0001.89,0001.60
2023-10-12 17:03:00,SystemResetWarning,0813.8,5.00,000.00,029.2,027.9,000.0,037.6,030.9,20.4,0000.0,0004.90,0001.89,0001.58
2023-10-12 17:04:00,SystemResetWarning,0813.7,5.00,000.00,029.3,027.9,000.0,037.6,030.9,20.5,0000.0,0004.45,0001.86,0001.58
2023-10-12 17:05:00,SystemResetWarning,0813.8,5.00,000.00,029.3,027.9,000.0,037.6,030.9,20.3,0000.0,0004.59,0001.89,0001.59
2023-10-12 17:06:00,SystemResetWarning,0813.9,5.00,000.00,029.3,028.0,000.0,037.6,030.9,20.5,0000.0,0004.18,0001.89,0001.58
2023-10-12 17:07:00,SystemResetWarning,0813.9,5.00,000.00,029.3,028.0,000.0,037.7,030.9,20.6,0000.0,0003.06,0001.88,0001.57
2023-10-12 17:08:00,SystemResetWarning,0813.9,5.00,000.00,029.3,028.0,000.0,037.7,030.9,20.3,0000.0,0002.93,0001.85,0001.57
2023-10-12 17:09:00,SystemResetWarning,0813.9,5.00,000.00,029.3,028.0,000.0,037.7,030.9,19.9,0000.0,0003.01,0001.86,0001.58
2023-10-12 17:10:00,SystemResetWarning,0813.9,5.00,000.00,029.3,028.0,000.0,037.7,031.0,18.9,0000.0,0003.21,0001.89,0001.60
2023-10-12 17:11:00,SystemResetWarning,0813.9,5.00,000.00,029.3,028.0,000.0,037.7,031.0,19.8,0000.0,0003.26,0001.95,0001.61
2023-10-12 17:12:00,SystemResetWarning,0813.9,5.00,000.00,029.3,028.0,000.0,037.7,031.0,20.1,0000.0,0003.35,0001.99,0001.63
2023-10-12 17:13:00,SystemResetWarning,0813.9,5.00,000.00,029.3,028.0,000.0,037.7,031.0,20.4,0000.0,0003.32,0002.01,0001.67
2023-10-12 17:14:00,SystemResetWarning,0813.9,5.00,000.00,029.4,028.0,000.0,037.7,031.0,20.6,0000.0,0004.55,0002.01,0001.70
2023-10-12 17:15:00,SystemResetWarning,0813.9,4.99,000.00,029.4,028.0,000.0,037.7,031.0,20.3,0000.0,0004.82,0002.05,0001.72
2023-10-12 17:16:00,SystemResetWarning,0813.9,4.99,000.00,029.4,028.1,000.0,037.8,031.0,20.2,0000.0,0004.84,0002.06,0001.72
2023-10-12 17:17:00,SystemResetWarning,0813.9,5.00,000.00,029.4,028.1,000.0,037.8,031.0,20.5,0000.0,0004.79,0002.08,0001.75
2023-10-12 17:18:00,SystemResetWarning,0813.9,5.00,000.00,029.4,028.1,000.0,037.8,031.0,20.7,0000.0,0004.78,0002.10,0001.78
2023-10-12 17:19:00,SystemResetWarning,0813.9,5.00,000.00,029.4,028.1,000.0,037.8,031.0,20.7,0000.0,0004.92,0002.16,0001.81
2023-10-12 17:20:00,SystemResetWarning,0813.8,5.00,000.00,029.4,028.1,000.0,037.8,031.1,20.9,0000.0,0004.87,0002.20,0001.86
2023-10-12 17:21:00,SystemResetWarning,0813.9,5.00,000.00,029.4,028.1,000.0,037.8,031.1,21.3,0000.0,0004.69,0002.23,0001.90
2023-10-12 17:22:00,SystemResetWarning,0813.9,5.00,000.00,029.4,028.1,000.0,037.8,031.1,20.9,0000.0,0005.21,0002.23,0001.94
2023-10-12 17:23:00,SystemResetWarning,0813.9,5.00,000.00,029.4,028.1,000.0,037.8,031.1,20.3,0000.0,0005.34,0002.26,0001.98
2023-10-12 17:24:00,SystemResetWarning,0813.9,5.00,000.00,029.5,028.1,000.0,037.8,031.1,20.6,0000.0,0005.47,0002.34,0002.02
2023-10-12 17:25:00,SystemResetWarning,0813.9,5.00,000.00,029.5,028.1,000.0,037.8,031.1,20.7,0000.0,0004.69,0002.40,0002.05
2023-10-12 17:26:00,SystemResetWarning,0813.9,5.00,000.00,029.5,028.1,000.0,037.9,031.1,20.7,0000.0,0004.21,0002.45,0002.11
2023-10-12 17:27:00,SystemResetWarning,0813.9,5.00,000.00,029.5,028.1,000.0,037.9,031.1,19.8,0000.0,0004.22,0002.49,0002.15
2023-10-12 17:28:00,SystemResetWarning,0813.9,5.01,000.00,029.5,028.1,000.0,037.9,031.1,18.9,0000.0,0004.24,0002.54,0002.19
2023-10-12 17:29:00,SystemResetWarning,0813.9,5.00,000.00,029.5,028.2,000.0,037.9,031.1,19.0,0000.0,0004.51,0002.61,0002.23
2023-10-12 17:30:00,SystemResetWarning,0813.9,5.00,000.00,029.5,028.2,000.0,037.9,031.2,19.1,0000.0,0004.61,0002.66,0002.26
2023-10-12 17:31:00,SystemResetWarning,0813.9,5.00,000.00,029.5,028.2,000.0,037.9,031.2,19.8,0000.0,0004.64,0002.70,0002.30
2023-10-12 17:32:00,SystemResetWarning,0813.9,5.00,000.00,029.5,028.2,000.0,037.9,031.2,20.5,0000.0,0004.82,0002.75,0002.34
2023-10-12 17:33:00,SystemResetWarning,0813.9,4.99,000.00,029.5,028.2,000.0,037.9,031.2,20.3,0000.0,0004.60,0002.79,0002.37
2023-10-12 17:34:00,SystemResetWarning,0813.9,4.99,000.00,029.6,028.2,000.0,038.0,031.2,20.0,0000.0,0004.13,0002.81,0002.40
2023-10-12 17:35:00,SystemResetWarning,0813.9,5.00,000.00,029.6,028.3,000.0,038.0,031.2,19.0,0000.0,0004.09,0002.79,0002.42
2023-10-12 17:36:00,SystemResetWarning,0813.9,5.00,000.00,029.6,028.3,000.0,038.0,031.2,19.8,0000.0,0004.16,0002.84,0002.45
2023-10-12 17:37:00,SystemResetWarning,0813.9,5.00,000.00,029.6,028.3,000.0,038.0,031.2,19.8,0000.0,0004.14,0002.84,0002.45
2023-10-12 17:38:00,SystemResetWarning,0813.9,5.00,000.00,029.6,028.3,000.0,038.0,031.3,20.0,0000.0,0004.16,0002.87,0002.47
2023-10-12 17:39:00,SystemResetWarning,0814.0,5.00,000.00,029.6,028.3,000.0,038.0,031.3,20.6,0000.0,0004.36,0002.89,0002.48
2023-10-12 17:40:00,SystemResetWarning,0814.0,5.00,000.00,029.6,028.3,000.0,038.0,031.3,20.4,0000.0,0004.50,0002.90,0002.50
2023-10-12 17:41:00,SystemResetWarning,0814.1,5.00,000.00,029.6,028.3,000.0,038.0,031.3,20.7,0000.0,0004.44,0002.92,0002.52
2023-10-12 17:42:00,SystemResetWarning,0814.1,5.00,000.00,029.6,028.3,000.0,038.0,031.3,20.1,0000.0,0004.57,0002.98,0002.55
2023-10-12 17:43:00,SystemResetWarning,0814.1,5.00,000.00,029.6,028.4,000.0,038.0,031.3,19.3,0000.0,0004.66,0003.07,0002.60
2023-10-12 17:44:00,SystemResetWarning,0814.1,5.00,000.00,029.7,028.4,000.0,038.1,031.3,19.1,0000.0,0005.39,0003.12,0002.66
2023-10-12 17:45:00,SystemResetWarning,0814.1,4.99,000.00,029.7,028.4,000.0,038.1,031.3,18.3,0000.0,0005.68,0003.16,0002.71
2023-10-12 17:46:00,SystemResetWarning,0814.1,4.99,000.00,029.7,028.4,000.0,038.1,031.4,17.9,0000.0,0005.81,0003.17,0002.73
2023-10-12 17:47:00,SystemResetWarning,0814.1,4.99,000.00,029.7,028.4,000.0,038.1,031.4,18.7,0000.0,0005.73,0003.16,0002.74
2023-10-12 17:48:00,SystemResetWarning,0814.2,5.00,000.00,029.7,028.4,000.0,038.1,031.4,18.2,0000.0,0005.85,0003.21,0002.81
2023-10-12 17:49:00,SystemResetWarning,0814.2,5.00,000.00,029.7,028.4,000.0,038.1,031.4,18.2,0000.0,0005.95,0003.26,0002.91
2023-10-12 17:50:00,SystemResetWarning,0814.2,5.00,000.00,029.8,028.5,000.0,038.1,031.4,17.9,0000.0,0006.20,0003.32,0003.00
2023-10-12 17:51:00,SystemResetWarning,0814.3,5.00,000.00,029.8,028.5,000.0,038.1,031.4,18.5,0000.0,0006.14,0003.39,0003.09
2023-10-12 17:52:00,SystemResetWarning,0814.3,5.00,000.00,029.8,028.5,000.0,038.1,031.4,18.9,0000.0,0006.14,0003.43,0003.16
2023-10-12 17:53:00,SystemResetWarning,0814.3,5.01,000.00,029.8,028.5,000.0,038.2,031.4,18.8,0000.0,0006.16,0003.46,0003.20
2023-10-12 17:54:00,SystemResetWarning,0814.3,5.00,000.00,029.8,028.5,000.0,038.2,031.4,18.6,0000.0,0006.13,0003.47,0003.22
2023-10-12 17:55:00,SystemResetWarning,0814.3,5.00,000.00,029.8,028.5,000.0,038.2,031.4,18.8,0000.0,0005.60,0003.49,0003.25
2023-10-12 17:56:00,SystemResetWarning,0814.4,4.99,000.00,029.8,028.5,000.0,038.2,031.5,18.3,0000.0,0005.44,0003.53,0003.28
2023-10-12 17:57:00,SystemResetWarning,0814.3,4.99,000.00,029.8,028.5,000.0,038.2,031.5,18.2,0000.0,0005.43,0003.58,0003.32
2023-10-12 17:58:00,SystemResetWarning,0814.3,5.00,000.00,029.8,028.5,000.0,038.2,031.5,18.6,0000.0,0005.55,0003.63,0003.37
2023-10-12 17:59:00,SystemResetWarning,0814.3,5.00,000.00,029.8,028.5,000.0,038.2,031.5,18.1,0000.0,0005.57,0003.65,0003.39
